RYR62HT EGGP-EICK

Flight info

Callsign RYR62HT
Flight time 0h 51m
Altitude 30000
Route WAL L10 PENIL M144 BAGSO DCT TISMO TISMO1R
Aircraft B738/M-SDE2E3FGHIRWXY/LB1

Departure

Time 2026-05-06 15:24
Airport Liverpool John Lennon Airport (EGGP)

Arrival

Time 2026-05-06 16:15
Airport Cork International Airport (EICK)
Time Latitude Longitude Altitude Speed Heading
2026-05-06 15:06 53.33659 -2.85584 95 ft 0 kts 355°
2026-05-06 15:17 53.33636 -2.85581 93 ft 3 kts 355°
2026-05-06 15:17 53.33617 -2.85582 93 ft 4 kts 41°
2026-05-06 15:17 53.33607 -2.85615 93 ft 3 kts 85°
2026-05-06 15:17 53.33605 -2.85659 93 ft 3 kts 85°
2026-05-06 15:18 53.33605 -2.85665 93 ft 0 kts 85°
2026-05-06 15:19 53.33606 -2.85652 93 ft 3 kts 85°
2026-05-06 15:20 53.33608 -2.85594 93 ft 8 kts 85°
2026-05-06 15:20 53.33577 -2.85512 97 ft 10 kts 169°
2026-05-06 15:20 53.33511 -2.85534 96 ft 10 kts 238°
2026-05-06 15:20 53.33502 -2.85649 93 ft 10 kts 271°
2026-05-06 15:21 53.33498 -2.85762 93 ft 10 kts 270°
2026-05-06 15:21 53.33491 -2.85873 93 ft 9 kts 264°
2026-05-06 15:21 53.33483 -2.85982 95 ft 9 kts 264°
2026-05-06 15:21 53.33478 -2.86095 93 ft 11 kts 266°
2026-05-06 15:22 53.33470 -2.86252 93 ft 17 kts 266°
2026-05-06 15:22 53.33460 -2.86478 93 ft 21 kts 265°
2026-05-06 15:22 53.33417 -2.86703 95 ft 21 kts 212°
2026-05-06 15:22 53.33294 -2.86645 93 ft 18 kts 119°
2026-05-06 15:23 53.33291 -2.86568 93 ft 0 kts 86°
2026-05-06 15:23 53.33295 -2.86460 96 ft 37 kts 86°
2026-05-06 15:23 53.33333 -2.85594 93 ft 110 kts 85°
2026-05-06 15:23 53.33414 -2.83996 216 ft 157 kts 85°
2026-05-06 15:24 53.33529 -2.82152 962 ft 161 kts 83°
2026-05-06 15:24 53.33684 -2.80265 1722 ft 170 kts 79°
2026-05-06 15:24 53.34197 -2.78303 2085 ft 199 kts 51°
2026-05-06 15:24 53.35381 -2.77006 2542 ft 215 kts 12°
2026-05-06 15:25 53.36871 -2.77331 3176 ft 224 kts 334°
2026-05-06 15:25 53.38041 -2.79246 3483 ft 256 kts 297°
2026-05-06 15:25 53.38481 -2.82193 4111 ft 265 kts 273°
2026-05-06 15:25 53.38462 -2.85282 4366 ft 278 kts 268°
2026-05-06 15:26 53.38410 -2.88513 4437 ft 272 kts 269°
2026-05-06 15:26 53.38403 -2.91665 4897 ft 270 kts 271°
2026-05-06 15:26 53.38451 -2.94815 5850 ft 269 kts 274°
2026-05-06 15:26 53.38552 -2.97931 6814 ft 268 kts 275°
2026-05-06 15:27 53.38671 -3.01059 7641 ft 271 kts 274°
2026-05-06 15:27 53.38797 -3.04228 8457 ft 274 kts 275°
2026-05-06 15:27 53.38940 -3.07427 9300 ft 277 kts 275°
2026-05-06 15:27 53.39088 -3.10657 10110 ft 279 kts 276°
2026-05-06 15:28 53.39500 -3.13897 10513 ft 296 kts 295°
2026-05-06 15:28 53.40613 -3.16947 10754 ft 317 kts 305°
2026-05-06 15:28 53.41917 -3.20005 11331 ft 326 kts 306°
2026-05-06 15:28 53.43261 -3.23093 12111 ft 329 kts 306°
2026-05-06 15:29 53.44610 -3.26199 12960 ft 330 kts 305°
2026-05-06 15:29 53.45963 -3.29337 13793 ft 333 kts 305°
2026-05-06 15:29 53.47323 -3.32515 14540 ft 337 kts 305°
2026-05-06 15:29 53.48692 -3.35731 15292 ft 340 kts 304°
2026-05-06 15:30 53.50073 -3.38989 16058 ft 344 kts 304°
2026-05-06 15:30 53.51465 -3.42279 16819 ft 347 kts 304°
2026-05-06 15:30 53.52869 -3.45606 17564 ft 351 kts 304°
2026-05-06 15:30 53.54291 -3.48980 18303 ft 355 kts 304°
2026-05-06 15:31 53.55725 -3.52388 18941 ft 359 kts 304°
2026-05-06 15:31 53.57171 -3.55828 19589 ft 362 kts 304°
2026-05-06 15:31 53.58630 -3.59304 20245 ft 365 kts 304°
2026-05-06 15:32 53.61124 -3.66710 21483 ft 370 kts 289°
2026-05-06 15:32 53.61802 -3.70905 22112 ft 373 kts 279°
2026-05-06 15:32 53.62067 -3.75262 22729 ft 376 kts 274°
2026-05-06 15:32 53.62223 -3.79677 23320 ft 379 kts 274°
2026-05-06 15:33 53.62379 -3.84129 23844 ft 383 kts 274°
2026-05-06 15:33 53.62554 -3.88621 24346 ft 385 kts 274°
2026-05-06 15:33 53.62739 -3.93115 24977 ft 383 kts 275°
2026-05-06 15:33 53.62924 -3.97577 25661 ft 381 kts 275°
2026-05-06 15:34 53.63102 -4.02018 26288 ft 380 kts 275°
2026-05-06 15:34 53.63275 -4.06464 26865 ft 380 kts 275°
2026-05-06 15:34 53.63447 -4.10905 27473 ft 379 kts 275°
2026-05-06 15:34 53.63615 -4.15326 28101 ft 378 kts 275°
2026-05-06 15:35 53.63784 -4.19743 28681 ft 378 kts 275°
2026-05-06 15:35 53.63950 -4.24163 29247 ft 378 kts 275°
2026-05-06 15:35 53.64108 -4.28575 29844 ft 377 kts 275°
2026-05-06 15:35 53.64268 -4.33011 30001 ft 383 kts 275°
2026-05-06 15:36 53.64586 -4.41940 30002 ft 378 kts 275°
2026-05-06 15:36 53.64892 -4.50726 30025 ft 376 kts 275°
2026-05-06 15:37 53.65195 -4.59556 30025 ft 378 kts 275°
2026-05-06 15:37 53.65493 -4.68441 30013 ft 380 kts 275°
2026-05-06 15:38 53.65787 -4.77337 30018 ft 381 kts 275°
2026-05-06 15:38 53.66074 -4.86251 30019 ft 381 kts 275°
2026-05-06 15:39 53.66370 -4.95166 30019 ft 381 kts 276°
2026-05-06 15:39 53.66662 -5.04072 30021 ft 380 kts 275°
2026-05-06 15:40 53.66946 -5.12960 30018 ft 379 kts 275°
2026-05-06 15:40 53.67213 -5.21838 30003 ft 379 kts 275°
2026-05-06 15:41 53.67466 -5.30721 30018 ft 379 kts 275°
2026-05-06 15:41 53.67718 -5.39624 30019 ft 381 kts 275°
2026-05-06 15:42 53.67507 -5.48545 30009 ft 388 kts 255°
2026-05-06 15:42 53.66363 -5.52685 30014 ft 394 kts 238°
2026-05-06 15:42 53.64560 -5.56186 30040 ft 397 kts 228°
2026-05-06 15:43 53.60631 -5.62786 30012 ft 399 kts 227°
2026-05-06 15:43 53.56715 -5.69327 30007 ft 400 kts 227°
2026-05-06 15:44 53.52785 -5.75944 30009 ft 399 kts 228°
2026-05-06 15:44 53.48873 -5.82558 29998 ft 399 kts 228°
2026-05-06 15:45 53.44969 -5.89154 29998 ft 398 kts 228°
2026-05-06 15:45 53.41065 -5.95733 29996 ft 397 kts 228°
2026-05-06 15:46 53.37168 -6.02284 29993 ft 397 kts 228°
2026-05-06 15:46 53.33267 -6.08823 29994 ft 397 kts 228°
2026-05-06 15:47 53.29365 -6.15346 29995 ft 397 kts 228°
2026-05-06 15:47 53.25453 -6.21877 29988 ft 398 kts 227°
2026-05-06 15:48 53.21520 -6.28408 29995 ft 400 kts 227°
2026-05-06 15:48 53.17572 -6.34949 29993 ft 397 kts 227°
2026-05-06 15:49 53.15620 -6.38176 29728 ft 393 kts 227°
2026-05-06 15:49 53.13700 -6.41345 29485 ft 385 kts 227°
2026-05-06 15:49 53.11801 -6.44477 29127 ft 382 kts 227°
2026-05-06 15:49 53.09925 -6.47566 28770 ft 378 kts 227°
2026-05-06 15:50 53.08691 -6.49598 28534 ft 376 kts 227°
2026-05-06 15:50 53.06841 -6.52641 28172 ft 372 kts 227°
2026-05-06 15:50 53.05008 -6.55651 27840 ft 369 kts 227°
2026-05-06 15:50 53.03189 -6.58635 27469 ft 366 kts 227°
2026-05-06 15:51 53.01383 -6.61594 27134 ft 363 kts 227°
2026-05-06 15:51 52.99591 -6.64527 26786 ft 361 kts 227°
2026-05-06 15:51 52.97807 -6.67431 26436 ft 358 kts 227°
2026-05-06 15:51 52.96037 -6.70323 26097 ft 356 kts 227°
2026-05-06 15:52 52.94278 -6.73193 25765 ft 353 kts 227°
2026-05-06 15:52 52.92532 -6.76038 25435 ft 351 kts 227°
2026-05-06 15:52 52.90795 -6.78864 25105 ft 349 kts 227°
2026-05-06 15:52 52.89069 -6.81668 24779 ft 347 kts 227°
2026-05-06 15:53 52.87354 -6.84452 24460 ft 345 kts 227°
2026-05-06 15:53 52.85645 -6.87222 24131 ft 343 kts 227°
2026-05-06 15:53 52.83945 -6.89974 23807 ft 341 kts 227°
2026-05-06 15:53 52.82273 -6.92678 23472 ft 340 kts 227°
2026-05-06 15:54 52.80587 -6.95401 23095 ft 338 kts 227°
2026-05-06 15:54 52.78915 -6.98100 22776 ft 334 kts 227°
2026-05-06 15:54 52.77271 -7.00775 22455 ft 330 kts 226°
2026-05-06 15:54 52.75637 -7.03410 22144 ft 327 kts 226°
2026-05-06 15:55 52.74008 -7.06014 21810 ft 324 kts 226°
2026-05-06 15:55 52.72411 -7.08634 21502 ft 324 kts 227°
2026-05-06 15:55 52.70792 -7.11231 21181 ft 324 kts 226°
2026-05-06 15:55 52.69168 -7.13810 20859 ft 324 kts 226°
2026-05-06 15:56 52.67546 -7.16387 20551 ft 324 kts 226°
2026-05-06 15:56 52.65925 -7.18967 20228 ft 322 kts 226°
2026-05-06 15:56 52.64321 -7.21522 19920 ft 320 kts 226°
2026-05-06 15:56 52.62727 -7.24060 19622 ft 318 kts 226°
2026-05-06 15:57 52.61144 -7.26581 19309 ft 316 kts 225°
2026-05-06 15:57 52.59571 -7.29084 19005 ft 314 kts 225°
2026-05-06 15:57 52.58008 -7.31569 18703 ft 312 kts 225°
2026-05-06 15:57 52.56453 -7.34039 18403 ft 310 kts 225°
2026-05-06 15:58 52.54906 -7.36494 18075 ft 308 kts 225°
2026-05-06 15:58 52.53366 -7.38936 17742 ft 306 kts 225°
2026-05-06 15:58 52.51840 -7.41353 17455 ft 303 kts 225°
2026-05-06 15:58 52.50328 -7.43745 17151 ft 301 kts 225°
2026-05-06 15:59 52.48828 -7.46117 16854 ft 298 kts 225°
2026-05-06 15:59 52.47338 -7.48470 16557 ft 296 kts 225°
2026-05-06 15:59 52.45851 -7.50815 16261 ft 298 kts 225°
2026-05-06 15:59 52.44356 -7.53172 15968 ft 299 kts 225°
2026-05-06 16:00 52.42858 -7.55531 15672 ft 297 kts 225°
2026-05-06 16:00 52.41372 -7.57869 15376 ft 296 kts 225°
2026-05-06 16:00 52.39891 -7.60196 15080 ft 294 kts 225°
2026-05-06 16:00 52.38437 -7.62479 14792 ft 292 kts 224°
2026-05-06 16:01 52.36973 -7.64775 14497 ft 291 kts 224°
2026-05-06 16:01 52.35516 -7.67058 14204 ft 289 kts 224°
2026-05-06 16:01 52.34069 -7.69323 13927 ft 287 kts 224°
2026-05-06 16:01 52.32628 -7.71577 13633 ft 286 kts 224°
2026-05-06 16:02 52.31193 -7.73820 13322 ft 285 kts 224°
2026-05-06 16:02 52.29765 -7.76048 13037 ft 283 kts 224°
2026-05-06 16:02 52.28345 -7.78263 12739 ft 281 kts 224°
2026-05-06 16:02 52.26938 -7.80455 12470 ft 279 kts 224°
2026-05-06 16:03 52.25536 -7.82640 12192 ft 277 kts 224°
2026-05-06 16:03 52.24146 -7.84799 11931 ft 275 kts 224°
2026-05-06 16:03 52.22756 -7.86955 11641 ft 277 kts 224°
2026-05-06 16:03 52.21369 -7.89119 11364 ft 275 kts 223°
2026-05-06 16:04 52.19985 -7.91268 11088 ft 274 kts 224°
2026-05-06 16:04 52.18603 -7.93411 10786 ft 274 kts 224°
2026-05-06 16:04 52.17229 -7.95542 10504 ft 273 kts 223°
2026-05-06 16:04 52.15851 -7.97659 10220 ft 272 kts 224°
2026-05-06 16:05 52.14493 -7.99754 10077 ft 266 kts 224°
2026-05-06 16:05 52.13440 -8.02166 9882 ft 261 kts 248°
2026-05-06 16:05 52.12924 -8.04981 9624 ft 261 kts 256°
2026-05-06 16:05 52.12556 -8.07886 9340 ft 261 kts 257°
2026-05-06 16:06 52.12176 -8.10775 9047 ft 262 kts 257°
2026-05-06 16:06 52.11790 -8.13675 8773 ft 262 kts 257°
2026-05-06 16:06 52.11409 -8.16564 8511 ft 260 kts 257°
2026-05-06 16:06 52.11026 -8.19429 8240 ft 258 kts 257°
2026-05-06 16:07 52.10639 -8.22268 7964 ft 257 kts 257°
2026-05-06 16:07 52.10254 -8.25089 7700 ft 255 kts 257°
2026-05-06 16:07 52.09879 -8.27901 7438 ft 254 kts 257°
2026-05-06 16:07 52.09493 -8.30699 7165 ft 253 kts 257°
2026-05-06 16:08 52.09116 -8.33492 6901 ft 252 kts 257°
2026-05-06 16:08 52.08728 -8.36272 6638 ft 252 kts 257°
2026-05-06 16:08 52.08341 -8.39038 6369 ft 251 kts 257°
2026-05-06 16:08 52.07959 -8.41796 6097 ft 250 kts 257°
2026-05-06 16:09 52.07508 -8.44520 5789 ft 251 kts 251°
2026-05-06 16:09 52.06902 -8.47167 5591 ft 247 kts 249°
2026-05-06 16:09 52.06305 -8.49726 5484 ft 239 kts 250°
2026-05-06 16:09 52.05733 -8.52204 5414 ft 230 kts 249°
2026-05-06 16:10 52.05184 -8.54596 5355 ft 222 kts 249°
2026-05-06 16:10 52.04657 -8.56909 5257 ft 215 kts 250°
2026-05-06 16:10 52.04040 -8.59058 5055 ft 209 kts 230°
2026-05-06 16:10 52.02799 -8.60151 4731 ft 207 kts 184°
2026-05-06 16:11 52.01416 -8.59625 4448 ft 203 kts 158°
2026-05-06 16:11 52.00120 -8.58752 4049 ft 204 kts 159°
2026-05-06 16:11 51.98804 -8.57907 3649 ft 201 kts 160°
2026-05-06 16:11 51.97534 -8.57087 3230 ft 193 kts 159°
2026-05-06 16:12 51.96312 -8.56335 2920 ft 180 kts 160°
2026-05-06 16:12 51.95189 -8.55666 2665 ft 165 kts 161°
2026-05-06 16:12 51.94147 -8.55050 2456 ft 157 kts 161°
2026-05-06 16:12 51.93138 -8.54453 2232 ft 153 kts 161°
2026-05-06 16:13 51.92139 -8.53862 2018 ft 152 kts 161°
2026-05-06 16:13 51.91156 -8.53278 1808 ft 148 kts 161°
2026-05-06 16:13 51.90224 -8.52725 1633 ft 139 kts 161°
2026-05-06 16:13 51.89311 -8.52184 1421 ft 140 kts 161°
2026-05-06 16:14 51.88410 -8.51649 1234 ft 139 kts 161°
2026-05-06 16:14 51.87489 -8.51105 1090 ft 140 kts 162°
2026-05-06 16:14 51.86598 -8.50574 849 ft 132 kts 160°
2026-05-06 16:14 51.85756 -8.50073 674 ft 125 kts 160°
2026-05-06 16:15 51.84902 -8.49560 529 ft 134 kts 161°
2026-05-06 16:15 51.84094 -8.49098 503 ft 102 kts 161°
2026-05-06 16:15 51.83629 -8.48818 503 ft 41 kts 160°
2026-05-06 16:15 51.83531 -8.48759 503 ft 8 kts 160°
2026-05-06 16:16 51.83432 -8.48699 503 ft 21 kts 159°
2026-05-06 16:16 51.83295 -8.48581 503 ft 15 kts 117°
2026-05-06 16:16 51.83252 -8.48548 503 ft 7 kts 264°
2026-05-06 16:16 51.83278 -8.48606 503 ft 7 kts 330°
2026-05-06 16:17 51.83325 -8.48636 503 ft 9 kts 340°
2026-05-06 16:17 51.83413 -8.48687 503 ft 20 kts 340°
2026-05-06 16:17 51.83586 -8.48791 503 ft 33 kts 340°
2026-05-06 16:17 51.83814 -8.48922 503 ft 35 kts 340°
2026-05-06 16:18 51.84039 -8.49058 503 ft 34 kts 338°
2026-05-06 16:18 51.84251 -8.49184 503 ft 32 kts 340°
2026-05-06 16:18 51.84452 -8.49304 503 ft 30 kts 340°
2026-05-06 16:18 51.84640 -8.49418 503 ft 28 kts 340°
2026-05-06 16:19 51.84778 -8.49389 503 ft 20 kts 63°
2026-05-06 16:19 51.84830 -8.49238 503 ft 10 kts 33°
2026-05-06 16:19 51.84896 -8.49250 503 ft 7 kts 11°
2026-05-06 16:19 51.84918 -8.49191 503 ft 6 kts 69°
2026-05-06 16:20 51.84932 -8.49129 503 ft 3 kts 70°
2026-05-06 16:20 51.84935 -8.49114 503 ft 0 kts 69°
2026-05-06 16:42 51.84935 -8.49115 503 ft 1 kts 69°